GW1769 Weather Reports


Display with metric or nautical units.
time (UTC)temp
F
wind
direction
speed
MPH
gust
MPH
rain 1hr
in
rain 24hr
in
rain mn
in
humidity
%
barometer
mb
20260510065603 48 75 0.0 0.0 0.00 0.00 0.00 99 1006.2
20260510065059 49 78 0.0 0.0 0.00 0.00 0.00 99 1006.3
20260510064555 49 81 0.0 0.0 0.00 0.00 0.00 99 1006.5
20260510064052 49 65 0.0 0.0 0.00 0.00 0.00 99 1006.7
20260510063549 49 64 0.0 0.0 0.00 0.00 0.00 99 1007.0
20260510063046 49 72 0.0 0.0 0.00 0.00 0.00 99 1006.9
20260510062542 49 63 0.0 0.0 0.00 0.00 0.00 99 1007.2
20260510062037 49 62 0.0 0.0 0.00 0.00 0.00 99 1006.9
20260510061534 49 62 0.0 0.0 0.00 0.00 0.00 99 1006.9
20260510061031 49 62 0.0 0.0 0.00 0.00 0.00 99 1006.9
20260510060527 49 64 0.0 0.0 0.00 0.00 0.00 99 1006.9
20260510060023 49 50 0.0 0.0 0.00 0.00 0.00 99 1007.1
20260510055519 49 54 0.0 0.0 0.00 0.00 0.00 99 1006.9
20260510055018 49 55 0.0 0.0 0.00 0.00 0.00 99 1006.7
20260510054513 49 61 0.0 0.0 0.00 0.00 0.00 99 1006.5
20260510054009 48 57 0.0 0.0 0.00 0.00 0.00 99 1006.6
20260510053503 48 51 0.0 0.0 0.00 0.00 0.00 99 1006.6
20260510053000 48 59 0.0 0.0 0.00 0.00 0.00 99 1006.5
20260510052456 48 50 0.0 0.0 0.00 0.00 0.00 99 1006.3
20260510051953 48 51 0.0 0.0 0.00 0.00 0.00 99 1006.2
20260510051448 48 55 0.0 0.0 0.00 0.00 0.00 99 1006.2
20260510050944 48 68 0.0 0.0 0.00 0.00 0.00 99 1006.2
20260510050442 48 68 0.0 0.0 0.00 0.00 0.00 99 1006.1
20260510045939 48 71 0.0 0.0 0.00 0.00 0.00 99 1006.3
20260510045436 48 64 0.0 0.0 0.00 0.00 0.00 99 1006.0
20260510044933 48 75 0.0 0.0 0.00 0.00 0.00 99 1006.2
20260510044430 49 63 0.0 0.0 0.00 0.00 0.00 99 1006.3
20260510043926 49 57 0.0 0.0 0.00 0.00 0.00 99 1006.1
20260510043422 49 69 0.0 0.0 0.00 0.00 0.00 99 1006.2
20260510042921 49 68 0.0 0.0 0.00 0.00 0.00 99 1006.2
20260510042416 49 64 0.0 0.0 0.00 0.00 0.00 99 1006.3
20260510041912 49 62 0.0 0.0 0.00 0.00 0.00 99 1006.2
20260510041410 49 74 0.0 0.0 0.00 0.00 0.00 99 1006.4
20260510040907 49 78 0.0 0.0 0.00 0.00 0.00 99 1006.4
20260510040404 49 61 0.0 0.0 0.00 0.00 0.00 99 1006.7
20260510035900 49 67 0.0 0.0 0.00 0.38 0.38 99 1006.4
20260510035356 49 58 0.0 0.0 0.00 0.38 0.38 99 1006.3
20260510034851 49 68 0.0 0.0 0.00 0.38 0.38 99 1006.2
20260510034349 49 59 0.0 0.0 0.00 0.38 0.38 99 1006.2
20260510033845 49 64 0.0 0.0 0.00 0.38 0.38 99 1006.1
20260510033342 50 82 0.0 0.0 0.00 0.38 0.38 99 1006.2
20260510032838 50 76 0.0 0.0 0.00 0.38 0.38 99 1006.1
20260510032336 50 78 0.0 0.0 0.00 0.38 0.38 99 1006.2
20260510031831 50 74 0.0 0.0 0.00 0.38 0.38 99 1006.3
20260510031326 50 67 0.0 0.0 0.00 0.38 0.38 99 1006.0
20260510030821 50 34 0.0 0.0 0.00 0.38 0.38 99 1006.1
20260510030318 50 62 0.0 0.0 0.00 0.38 0.38 99 1006.0
20260510025815 50 53 0.0 0.0 0.00 0.38 0.38 99 1006.0
20260510025312 50 72 0.0 0.0 0.00 0.38 0.38 99 1005.9
20260510024809 50 71 0.0 0.0 0.00 0.38 0.38 99 1006.1
20260510024306 49 68 0.0 0.0 0.00 0.38 0.38 99 1006.3
20260510023802 49 59 0.0 0.0 0.00 0.38 0.38 99 1006.2
20260510023259 50 65 0.0 0.0 0.00 0.38 0.38 99 1006.1
20260510022756 49 69 0.0 0.0 0.00 0.38 0.38 99 1006.0
20260510022255 50 68 0.0 0.0 0.00 0.38 0.38 99 1006.0
20260510021754 50 59 0.0 0.0 0.00 0.38 0.38 99 1005.9
20260510021253 50 82 0.0 0.0 0.00 0.38 0.38 99 1006.2
20260510020748 50 64 0.0 0.0 0.00 0.38 0.38 99 1006.3
20260510020242 50 84 0.0 0.0 0.00 0.38 0.38 99 1005.9
20260510015739 50 74 0.0 0.0 0.00 0.38 0.38 99 1006.2
20260510015235 50 75 0.0 0.0 0.00 0.38 0.38 99 1006.3
20260510014730 50 69 0.0 0.0 0.00 0.38 0.38 99 1006.2
20260510014228 50 67 0.0 0.0 0.00 0.38 0.38 99 1006.0
20260510013724 50 67 0.0 0.0 0.00 0.38 0.38 99 1006.1
20260510013219 50 69 0.0 0.0 0.00 0.38 0.38 99 1006.3
20260510012719 50 73 0.0 0.0 0.00 0.38 0.38 99 1006.1
20260510012214 50 64 0.0 0.0 0.00 0.38 0.38 99 1006.1
20260510011709 50 65 0.0 0.0 0.00 0.38 0.38 99 1005.8
20260510011205 50 65 0.0 0.0 0.00 0.38 0.38 99 1006.0
20260510010702 51 67 0.0 0.0 0.00 0.38 0.38 99 1005.9
20260510010158 51 60 0.0 0.0 0.00 0.38 0.38 99 1006.2
20260510005655 51 79 0.0 0.0 0.00 0.38 0.38 99 1006.4
20260510005151 51 64 0.0 0.0 0.00 0.38 0.38 99 1006.0
20260510004650 51 68 0.0 0.0 0.00 0.38 0.38 99 1005.8
20260510004148 51 65 0.0 0.0 0.00 0.38 0.38 99 1005.9
20260510003645 51 64 0.0 0.0 0.00 0.38 0.38 99 1005.6
20260510003140 51 64 0.0 0.0 0.00 0.38 0.38 99 1005.5
20260510002635 51 68 0.0 0.0 0.00 0.38 0.38 99 1005.6
20260510002132 51 62 0.0 0.0 0.00 0.38 0.38 99 1005.7
20260510001629 51 64 0.0 0.0 0.00 0.38 0.38 99 1005.7
20260510001128 51 69 0.0 0.0 0.00 0.38 0.38 99 1005.7
20260510000627 51 69 0.0 0.0 0.00 0.38 0.38 99 1005.8
20260510000126 51 69 0.0 0.0 0.00 0.38 0.38 99 1005.5
20260509235621 51 64 0.0 0.0 0.00 0.38 0.38 99 1005.6
20260509235118 51 108 1.0 1.0 0.00 0.38 0.38 99 1005.3
20260509234614 51 69 0.0 0.0 0.00 0.38 0.38 99 1005.1
20260509234112 52 62 0.0 0.0 0.00 0.38 0.38 99 1005.0
20260509233610 52 61 0.0 0.0 0.00 0.38 0.38 99 1005.2
20260509233107 52 63 0.0 0.0 0.00 0.38 0.38 99 1005.1
20260509232603 52 67 0.0 0.0 0.00 0.38 0.38 99 1005.0
20260509232100 52 67 0.0 0.0 0.00 0.38 0.38 99 1005.0
20260509231556 53 67 0.0 0.0 0.00 0.38 0.38 99 1005.0
20260509231054 52 67 0.0 0.0 0.00 0.38 0.38 99 1005.1
20260509230551 53 62 0.0 0.0 0.00 0.38 0.38 99 1004.8
20260509230048 53 89 0.0 0.0 0.00 0.38 0.38 99 1004.8
20260509225549 53 69 0.0 0.0 0.00 0.38 0.38 99 1004.9
20260509225044 53 63 1.0 1.0 0.00 0.38 0.38 99 1004.8
20260509224540 53 62 0.0 0.0 0.00 0.38 0.38 99 1004.8
20260509224037 53 37 1.0 1.0 0.00 0.38 0.38 99 1004.7
20260509223534 53 71 0.0 0.0 0.00 0.38 0.38 99 1004.7
20260509223032 53 58 0.0 0.0 0.00 0.38 0.38 99 1004.7
20260509222528 53 83 0.0 0.0 0.00 0.38 0.38 99 1004.7
20260509222023 53 84 1.0 1.0 0.00 0.38 0.38 99 1004.9
20260509221520 53 71 0.0 0.0 0.00 0.38 0.38 99 1005.0
20260509221016 53 65 0.0 0.0 0.00 0.38 0.38 99 1004.9
20260509220512 53 65 0.0 0.0 0.00 0.38 0.38 99 1005.1
20260509220008 52 58 0.0 1.0 0.00 0.38 0.38 99 1005.0
20260509215503 53 69 0.0 1.0 0.00 0.38 0.38 99 1005.1
20260509215001 52 63 0.0 0.0 0.00 0.38 0.38 99 1005.1
20260509214458 52 73 0.0 0.0 0.00 0.38 0.38 99 1005.2
20260509213955 52 79 0.0 0.0 0.00 0.38 0.38 99 1005.0
20260509213451 52 59 0.0 0.0 0.00 0.38 0.38 99 1005.3
20260509212948 52 73 0.0 0.0 0.00 0.38 0.38 99 1005.4
20260509212445 51 81 0.0 0.0 0.00 0.38 0.38 99 1005.3
20260509211942 51 67 0.0 0.0 0.00 0.38 0.38 99 1005.4
20260509211437 51 63 0.0 0.0 0.00 0.38 0.38 99 1005.4
20260509210934 51 64 0.0 0.0 0.00 0.38 0.38 99 1005.3
20260509210431 51 79 0.0 0.0 0.00 0.38 0.38 99 1005.3
20260509205926 51 74 0.0 0.0 0.00 0.38 0.38 99 1005.3
20260509205421 51 73 0.0 0.0 0.00 0.38 0.38 99 1005.4
20260509204917 50 70 0.0 0.0 0.00 0.38 0.38 99 1005.5
20260509204414 50 70 0.0 0.0 0.00 0.38 0.38 99 1005.5
20260509203910 50 62 0.0 0.0 0.00 0.38 0.38 99 1005.5
20260509203406 50 62 0.0 0.0 0.00 0.38 0.38 99 1005.4
20260509202904 50 83 0.0 0.0 0.00 0.38 0.38 99 1005.7
20260509202359 50 27 1.0 1.0 0.00 0.38 0.38 99 1005.9
20260509201855 50 79 0.0 1.0 0.00 0.38 0.38 99 1005.7
20260509201350 50 72 0.0 0.0 0.00 0.38 0.38 99 1005.9
20260509200848 49 106 2.0 3.0 0.00 0.38 0.38 99 1006.0
20260509200342 49 64 0.0 0.0 0.00 0.38 0.38 99 1005.9
20260509195839 49 82 1.0 2.0 0.00 0.38 0.38 99 1006.1
20260509195334 49 39 0.0 1.0 0.00 0.38 0.38 99 1006.1
20260509194833 49 71 0.0 0.0 0.00 0.38 0.38 99 1006.2
20260509194330 49 90 1.0 2.0 0.00 0.38 0.38 99 1006.2
20260509193827 49 73 0.0 0.0 0.00 0.38 0.38 99 1006.1
20260509193321 49 49 1.0 1.0 0.00 0.38 0.38 99 1006.4
20260509192817 48 61 0.0 0.0 0.05 0.38 0.38 99 1006.4
20260509192314 48 74 0.0 0.0 0.05 0.38 0.38 99 1006.6
20260509191809 48 68 0.0 0.0 0.00 0.37 0.37 99 1006.7
20260509191305 49 86 0.0 1.0 0.00 0.37 0.37 99 1006.6
20260509190801 48 86 1.0 1.0 0.00 0.37 0.37 99 1006.6
20260509190258 49 65 0.0 0.0 0.00 0.37 0.37 99 1006.9
20260509185755 49 73 0.0 1.0 0.00 0.37 0.37 99 1006.9
20260509185251 48 77 0.0 1.0 0.00 0.37 0.37 99 1006.7
20260509184749 48 58 0.0 1.0 0.00 0.37 0.37 99 1006.7
20260509184247 48 65 0.0 0.0 0.00 0.37 0.37 99 1006.9
20260509183743 48 86 1.0 2.0 0.00 0.37 0.37 99 1006.9
20260509183238 48 61 0.0 0.0 0.00 0.37 0.37 99 1006.5
20260509182734 48 36 1.0 2.0 0.00 0.37 0.37 99 1006.7
20260509182232 48 71 0.0 0.0 0.07 0.37 0.37 99 1006.5
20260509181729 48 57 0.0 0.0 0.07 0.37 0.37 99 1006.7
20260509181226 47 63 0.0 0.0 0.07 0.37 0.37 99 1006.5
20260509180723 47 80 0.0 0.0 0.00 0.36 0.36 99 1006.6
20260509180219 47 89 0.0 0.0 0.00 0.36 0.36 99 1006.9
20260509175716 47 73 1.0 1.0 0.00 0.36 0.36 99 1006.6
20260509175212 47 90 2.0 3.0 0.00 0.36 0.36 99 1006.9
20260509174708 47 72 0.0 0.0 0.00 0.36 0.36 99 1006.9
20260509174203 47 59 0.0 0.0 0.00 0.36 0.36 99 1006.9
20260509173700 47 77 1.0 1.0 0.00 0.36 0.36 99 1006.7
20260509173155 47 78 0.0 0.0 0.00 0.36 0.36 99 1007.1
20260509172652 46 57 0.0 1.0 0.05 0.36 0.36 99 1006.9
20260509172148 46 69 0.0 0.0 0.05 0.36 0.36 99 1007.0
20260509171643 46 80 0.0 0.0 0.00 0.35 0.35 99 1007.2
20260509171140 46 59 0.0 1.0 0.00 0.35 0.35 99 1007.2
20260509170637 46 74 0.0 1.0 0.07 0.35 0.35 99 1007.3
20260509170133 46 78 0.0 1.0 0.07 0.35 0.35 99 1007.0
20260509165631 47 84 0.0 0.0 0.00 0.34 0.34 99 1007.1
20260509165127 47 77 0.0 0.0 0.00 0.34 0.34 99 1007.2
20260509164624 46 80 0.0 0.0 0.05 0.34 0.34 99 1007.6
20260509164119 47 57 1.0 2.0 0.05 0.34 0.34 99 1007.3
20260509163617 47 77 0.0 0.0 0.07 0.33 0.33 99 1007.5
20260509163113 46 90 1.0 2.0 0.07 0.33 0.33 99 1007.7
20260509162610 46 60 1.0 2.0 0.07 0.33 0.33 99 1007.4
20260509162106 46 176 1.0 1.0 0.00 0.32 0.32 99 1007.5
20260509161603 47 67 0.0 0.0 0.05 0.32 0.32 99 1007.7
20260509161102 46 58 2.0 2.0 0.05 0.32 0.32 99 1007.6
20260509160559 46 37 1.0 2.0 0.00 0.31 0.31 99 1007.7
20260509160054 46 69 0.0 1.0 0.07 0.31 0.31 99 1007.9
20260509155551 46 89 1.0 1.0 0.07 0.31 0.31 99 1007.9
20260509155047 46 60 1.0 2.0 0.07 0.30 0.30 99 1008.1
20260509154543 45 142 2.0 2.0 0.07 0.30 0.30 99 1008.1
20260509154041 45 84 0.0 1.0 0.05 0.29 0.29 99 1008.1
20260509153538 45 105 0.0 0.0 0.05 0.29 0.29 99 1008.4
20260509153035 45 58 0.0 1.0 0.07 0.28 0.28 99 1008.2
20260509152530 45 72 0.0 0.0 0.12 0.28 0.28 99 1008.3
20260509152028 45 114 1.0 1.0 0.12 0.27 0.27 99 1008.4
20260509151524 45 67 0.0 0.0 0.12 0.26 0.26 99 1008.5
20260509151022 45 77 2.0 2.0 0.05 0.25 0.25 99 1008.6
20260509150519 45 49 0.0 0.0 0.12 0.25 0.25 99 1008.7
20260509150018 45 67 0.0 1.0 0.12 0.24 0.24 99 1008.7
20260509145513 45 66 0.0 0.0 0.05 0.23 0.23 99 1008.7
20260509145008 44 70 0.0 0.0 0.07 0.22 0.22 99 1008.5
20260509144505 44 75 0.0 0.0 0.12 0.22 0.22 99 1008.6
20260509144002 44 69 0.0 0.0 0.05 0.21 0.21 99 1008.5
20260509143459 44 69 1.0 1.0 0.07 0.20 0.20 99 1008.6
20260509142956 44 69 0.0 0.0 0.07 0.20 0.20 99 1008.6
20260509142452 44 79 0.0 0.0 0.07 0.19 0.19 99 1008.6
20260509141948 44 84 0.0 0.0 0.07 0.19 0.19 99 1008.7
20260509141444 44 111 1.0 2.0 0.00 0.18 0.18 99 1008.5
20260509140941 43 71 1.0 2.0 0.05 0.18 0.18 99 1008.6
20260509140437 43 78 0.0 0.0 0.12 0.18 0.18 99 1008.7
20260509135936 43 75 0.0 1.0 0.07 0.17 0.17 99 1008.5
20260509135433 43 102 0.0 1.0 0.07 0.17 0.17 99 1008.6
20260509134930 43 75 0.0 0.0 0.05 0.16 0.16 99 1008.6
20260509134428 43 95 0.0 0.0 0.05 0.16 0.16 99 1008.6
20260509133925 43 78 0.0 0.0 0.07 0.15 0.15 99 1008.6
20260509133421 43 75 0.0 0.0 0.07 0.15 0.15 99 1008.7
20260509132920 43 87 0.0 0.0 0.05 0.14 0.14 99 1008.4
20260509132418 43 73 0.0 0.0 0.12 0.14 0.14 99 1008.6
20260509131914 43 73 0.0 0.0 0.12 0.13 0.13 99 1008.6
20260509131412 43 74 0.0 0.0 0.12 0.12 0.12 99 1008.6
20260509130908 43 74 0.0 0.0 0.07 0.11 0.11 99 1008.7
20260509130403 43 73 0.0 0.0 0.05 0.10 0.10 99 1008.5
20260509125901 42 95 0.0 0.0 0.05 0.10 0.10 99 1008.7
20260509125357 43 117 1.0 1.0 0.07 0.09 0.09 99 1008.7
20260509124853 42 69 0.0 0.0 0.07 0.09 0.09 99 1008.7
20260509124350 42 73 0.0 0.0 0.05 0.08 0.08 99 1008.7
20260509123848 42 73 0.0 0.0 0.05 0.08 0.08 99 1008.9
20260509123345 42 79 0.0 0.0 0.07 0.07 0.07 99 1008.7
20260509122841 42 81 0.0 0.0 0.07 0.07 0.07 99 1008.9
20260509122338 42 82 0.0 0.0 0.07 0.06 0.06 99 1008.8
20260509121835 42 74 0.0 0.0 0.07 0.06 0.06 99 1008.8
20260509121332 42 75 0.0 0.0 0.05 0.05 0.05 98 1008.7
20260509120830 42 73 0.0 1.0 0.05 0.05 0.05 98 1008.7
20260509120327 42 71 0.0 0.0 0.00 0.04 0.04 98 1008.8
20260509115826 42 68 0.0 0.0 0.07 0.04 0.04 98 1009.0
20260509115322 42 79 0.0 0.0 0.07 0.04 0.04 98 1008.6
20260509114820 42 69 0.0 0.0 0.00 0.03 0.03 97 1009.1
20260509114319 42 70 0.0 0.0 0.05 0.03 0.03 97 1008.8
20260509113818 42 62 0.0 0.0 0.05 0.03 0.03 97 1008.8
20260509113314 42 69 0.0 0.0 0.07 0.02 0.02 96 1008.9
20260509112811 42 62 0.0 0.0 0.07 0.02 0.02 96 1008.9
20260509112308 42 65 0.0 0.0 0.00 0.01 0.01 95 1008.9
20260509111805 42 68 0.0 0.0 0.00 0.01 0.01 95 1008.8
20260509111302 42 69 0.0 0.0 0.05 0.01 0.01 94 1008.8
20260509110759 42 65 0.0 0.0 0.05 0.01 0.01 93 1008.7
20260509110255 42 69 0.0 0.0 0.00 0.00 0.00 92 1008.7
20260509105754 42 76 0.0 0.0 0.00 0.00 0.00 91 1009.0
20260509105251 42 65 0.0 0.0 0.00 0.00 0.00 91 1008.9
20260509104748 42 62 1.0 1.0 0.00 0.00 0.00 91 1008.6
20260509104245 42 74 1.0 1.0 0.00 0.00 0.00 91 1008.5
20260509103743 42 79 0.0 0.0 0.00 0.00 0.00 91 1008.8
20260509103240 42 73 0.0 0.0 0.00 0.00 0.00 91 1008.7
20260509102738 42 61 1.0 1.0 0.00 0.00 0.00 91 1008.6
20260509102235 42 65 0.0 0.0 0.00 0.00 0.00 91 1008.6
20260509101731 42 69 0.0 0.0 0.00 0.00 0.00 91 1008.8
20260509101227 42 81 0.0 0.0 0.00 0.00 0.00 91 1008.7
20260509100725 42 68 0.0 0.0 0.00 0.00 0.00 90 1009.0
20260509100222 42 118 0.0 1.0 0.00 0.00 0.00 90 1008.9
20260509095719 42 79 0.0 0.0 0.00 0.00 0.00 90 1008.9
20260509095216 42 67 0.0 0.0 0.00 0.00 0.00 89 1009.2
20260509094713 42 85 0.0 1.0 0.00 0.00 0.00 89 1008.9
20260509094210 42 70 0.0 0.0 0.00 0.00 0.00 89 1008.8
20260509093708 42 89 0.0 0.0 0.00 0.00 0.00 89 1008.9
20260509093205 42 58 0.0 1.0 0.00 0.00 0.00 88 1009.0
20260509092703 42 73 0.0 1.0 0.00 0.00 0.00 87 1009.0
20260509092201 42 72 0.0 0.0 0.00 0.00 0.00 87 1009.2
20260509091659 43 60 0.0 0.0 0.00 0.00 0.00 86 1009.2
20260509091154 43 59 0.0 0.0 0.00 0.00 0.00 83 1009.3
20260509090652 44 39 0.0 1.0 0.00 0.00 0.00 80 1009.4
20260509090149 44 77 0.0 0.0 0.00 0.00 0.00 77 1009.4
20260509085647 43 55 0.0 0.0 0.00 0.00 0.00 77 1009.4
20260509085143 43 27 1.0 2.0 0.00 0.00 0.00 77 1009.3
20260509084640 42 74 0.0 0.0 0.00 0.00 0.00 80 1009.5
20260509084137 42 46 0.0 0.0 0.00 0.00 0.00 82 1009.3
20260509083635 41 44 1.0 1.0 0.00 0.00 0.00 88 1009.4
20260509083131 40 41 1.0 1.0 0.00 0.00 0.00 90 1009.1
20260509082628 40 41 0.0 0.0 0.00 0.00 0.00 92 1009.2
20260509082125 40 41 0.0 1.0 0.00 0.00 0.00 92 1009.2
20260509081622 40 41 0.0 0.0 0.00 0.00 0.00 92 1009.0
20260509081119 39 41 0.0 1.0 0.00 0.00 0.00 92 1009.2
20260509080617 39 41 0.0 1.0 0.00 0.00 0.00 91 1009.0
20260509080115 39 38 0.0 0.0 0.00 0.00 0.00 91 1008.9
20260509075613 39 37 0.0 1.0 0.00 0.00 0.00 91 1008.9
20260509075110 39 37 1.0 1.0 0.00 0.00 0.00 91 1009.0
20260509074607 39 37 1.0 1.0 0.00 0.00 0.00 90 1009.1
20260509074103 39 37 0.0 1.0 0.00 0.00 0.00 90 1008.9
20260509073600 38 29 1.0 1.0 0.00 0.00 0.00 89 1008.9
20260509073056 38 28 1.0 1.0 0.00 0.00 0.00 89 1009.1
20260509072553 37 22 1.0 1.0 0.00 0.00 0.00 89 1009.0
20260509072050 37 21 1.0 1.0 0.00 0.00 0.00 90 1009.1
20260509071547 37 18 1.0 1.0 0.00 0.00 0.00 91 1008.9
20260509071044 36 19 1.0 1.0 0.00 0.00 0.00 91 1009.1
20260509070541 36 20 1.0 1.0 0.00 0.00 0.00 92 1009.1
20260509070038 36 27 1.0 1.0 0.00 0.00 0.00 92 1009.0